Regional Weather Roundup
Issued by NWS Boston, MA

Current Version | Previous Version | Text Only | Print | Product List | Glossary On
Versions: 1 2 3 4 5 6 7 8 9 10 11 12 13 14 15 16 17 18 19 20 21 22 23 24 25 26 27
000
ASUS41 KBOX 240810
RWRBOX

REGIONAL WEATHER ROUNDUP
NATIONAL WEATHER SERVICE TAUNTON MA
300 AM EST SAT FEB 24 2018

NOTE:  "FAIR" INDICATES FEW OR NO CLOUDS BELOW 12,000 FEET WITH NO
SIGNIFICANT WEATHER AND/OR OBSTRUCTIONS TO VISIBILITY.

MAZALL-240900-
EASTERN MASSACHUSETTS

CITY           SKY/WX    TMP DP  RH WIND       PRES   REMARKS
BOSTON         FAIR      41  38  89 W14       30.02F
BEVERLY        FAIR      40  38  93 W8        30.00F
LAWRENCE       FAIR      40  36  86 SW9       30.01F
BEDFORD        FAIR      39  37  92 SW5       30.01F
BLUE HILL      NOT AVBL
NORWOOD        FAIR      42  40  92 SW6       30.04F
MARSHFIELD     FAIR      41  41 100 W9G17     30.02S
PLYMOUTH       FAIR      42  39  89 SW8       30.04F
TAUNTON        FAIR      40  39  97 W6        30.04F
NEW BEDFORD    CLOUDY    41  41 100 W8        30.05F
$$

MAZALL-240900-
CAPE COD AND THE ISLANDS

CITY           SKY/WX    TMP DP  RH WIND       PRES   REMARKS
FALMOUTH       CLOUDY    39  39 100 W17       30.05  WCI  30
HYANNIS        FAIR      43  41  93 W16G24    30.02S
CHATHAM        FAIR      45  44  97 W8G20     30.03F
PROVINCETOWN   FAIR      40  38  93 W16       30.02F WCI  31
NANTUCKET      CLOUDY    40  40 100 W24G31    30.06F WCI  29
MARTHAS VNYRD  CLOUDY   N/A N/A N/A W9G23     30.07F
$$

MAZALL-240900-
CENTRAL AND WESTERN MASSACHUSETTS

CITY           SKY/WX    TMP DP  RH WIND       PRES   REMARKS
WORCESTER      MOCLDY    37  36  96 W21G28    29.99F WCI  26
FITCHBURG      CLOUDY    43  38  82 CALM      30.01F
ORANGE         CLOUDY    35  35 100 S6        30.05F WCI  30
SPRINGFIELD    CLOUDY    38  37  95 S5        30.06
WESTFIELD      CLOUDY    37  37 100 S3        30.07F
NORTH ADAMS    CLOUDY    40  38  93 W3        30.08S
PITTSFIELD     CLOUDY    35  33  92 CALM      30.06S FOG
$$

RIZALL-240900-
RHODE ISLAND

CITY           SKY/WX    TMP DP  RH WIND       PRES   REMARKS
PROVIDENCE     CLOUDY    42  40  92 W9        30.07F
NEWPORT        CLOUDY    40  40 100 W5        30.06F
BLOCK ISLAND   FOG       39  39 100 W17G23    30.10F VSB 1/2 WCI  30
SMITHFIELD     FAIR      38  37  97 MISG      30.04F
WESTERLY       CLOUDY    40  40 100 SW12      30.09F FOG
$$

CTZALL-240900-
CONNECTICUT

CITY           SKY/WX    TMP DP  RH WIND       PRES   REMARKS
BRADLEY INTL   CLOUDY    40  38  93 S7        30.08F
HARTFORD       FAIR      39  38  96 S7        30.09F
BRIDGEPORT     FAIR      39  37  92 SW7       30.12F FOG
DANBURY        FAIR      39  38  96 W8        30.11F
GROTON         CLOUDY    41  38  89 SW9       30.09F FOG
NEW HAVEN      FAIR      39  37  92 SW5       30.11F FOG
CHESTER        CLOUDY    39  39 100 SW8       30.09F FOG
MERIDEN        FAIR      37  37 100 SE3       30.11F FOG
WILLIMANTIC    FAIR      42  38  85 VRB5      30.09F
OXFORD         CLOUDY    37  37 100 W8        30.10F FOG     WCI  31
$$

MEZ002-015-021-024-NHZ003-005-008-011-012-014-VTZ005-008-240900-
NORTHERN NEW ENGLAND

CITY           SKY/WX    TMP DP  RH WIND       PRES   REMARKS
PORTLAND ME    FAIR      35  34  96 SW9       29.95F WCI  28
BANGOR ME      CLOUDY    35  34  96 SW5       29.90F WCI  31
CONCORD NH     FAIR      33  31  92 CALM      29.98F FOG
MANCHESTER NH  CLOUDY    35  34  96 S3        29.99F
NASHUA NH      FAIR      38  38 100 SW5       30.00F
PORTSMOUTH NH  CLOUDY    36  35  97 W5        29.97S WCI  32
JAFFREY NH     CLOUDY    34  34 100 CALM      29.99F
KEENE NH       CLOUDY    34  34 100 CALM      30.02F
BURLINGTON VT  CLOUDY    38  35  89 S10       30.03R WCI  31
MT. WASHINGTON FOG       25  25 100 W79G87      N/A  VSB 1/16WCI   0
$$

NYZ052-076-240900-
EASTERN NEW YORK

CITY           SKY/WX    TMP DP  RH WIND       PRES   REMARKS
ALBANY         CLOUDY    37  34  89 S6        30.12F
NEW YORK CITY  CLOUDY    45  40  82 W9        30.15F
$$

ANZALL-240900-
MARINE OBSERVATIONS

STATION/POSITION TIME  TEMP    WIND        PRES    VSBY  WAVE
                       AIR SEA DIR/SP/G                  HT/PER
                 (UTC) (F)     (DEG/KT/KT) (MB)    (MI)  (FT/S)
BOSTON BUOY      0750   41 40  250/ 10/ 14 1015.8F         3/ 6
BUZZARDS BAY     0700   38     260/ 21/ 23 1019.1F
NANTUCKET SOUND  0750   40 39  270/ 19/ 23 1017.1F         1/ 3
MASS BAY-STELLWA 0704   40 40              1015.0F         4/ 6
ISLE OF SHOALS   0800   38     250/ 16/ 18 1015.0F
S OF BLOCK IS    0743      41                N/A           4/ 3
$$

......................KEY.........................
  SKY/WX - SKY CONDITION/PRESENT WEATHER
  TMP    - TEMPERATURE IN FAHRENHEIT
  DWPT   - DEWPOINT IN FAHRENHEIT
  RH     - RELATIVE HUMIDITY IN PERCENT
  WIND   - DIRECTION AND SPEED IN MPH
  PRES   - MEAN SEA LEVEL PRESSURE IN INCHES OF HG
  WCI    - WIND CHILL INDEX
  VSB    - VISIBILITY IN MILES
  HX     - HEAT INDEX
  TC     - TEMPERATURE IN CELSIUS
  VRB    - VARIABLE WIND DIRECTION
  N/A    - NOT AVAILABLE




USA.gov is the U.S. government's official web portal to all federal, state and local government web resources and services.